Burns, OR

2:53 PM PDT on June 26, 2017 (GMT -0700)
Burns Municipal

Weather History for KBNO - June, 2013

Change the Weather History Date:

Tuesday, June 25, 2013

  Actual Average Record
Temperature  
Mean Temperature 52 °F 61 °F  
Max Temperature 61 °F 79 °F 95 °F (1970)
Min Temperature 43 °F 44 °F 30 °F (2007)
Degree Days  
Heating Degree Days 13 5  
Month to date heating degree days 188 197  
Since 1 June heating degree days 188 197  
Since 1 July heating degree days 7420 7667  
Cooling Degree Days 0 1  
Month to date cooling degree days 18 11  
Year to date cooling degree days 19 14  
Since 1 June cooling degree days 18 11  
Growing Degree Days 3 (Base 50)    
Moisture  
Dew Point 51 °F    
Average Humidity 83    
Maximum Humidity 93    
Minimum Humidity 72    
Precipitation  
Precipitation 0.46 in 0.02 in 1.07 in (1992)
Month to date precipitation 0.81 0.68  
Year to date precipitation 3.35 6.14  
Sea Level Pressure  
Sea Level Pressure 29.90 in    
Wind  
Wind Speed 4 mph (East)    
Max Wind Speed 12 mph    
Max Gust Speed 15 mph    
Visibility 9 miles    
Events Rain    
T = Trace of Precipitation, MM = Missing Value Source: NWS Daily Summary

Daily Weather History Graph

Daily Weather History Graph

Search for Another Location

Airport or City:

Trip Planner

Search our weather history database for the weather conditions in past years. The results will help you decide how hot, cold, wet, or windy it might be!

Date:

Astronomy

Jun. 25, 2013 Rise Set
Actual Time 5:15 AM PDT 8:41 PM PDT
Civil Twilight 4:39 AM PDT 9:17 PM PDT
Nautical Twilight 3:52 AM PDT 10:04 PM PDT
Astronomical Twilight 2:53 AM PDT 11:03 PM PDT
Moon 10:23 PM PDT (6/25) 8:07 AM PDT (6/25)
Length of Visible Light 16h 37m
Length of Day
15h 25m
Waning Gibbous, 92% of the Moon is Illuminated
Jun 25
Waning Gibbous
Jun 29
Last Quarter
Jul 8
New
Jul 15
First Quarter
Jul 22
Full

Hourly Weather History & Observations

Time (PDT) Temp. Windchill Dew Point Humidity Pressure Visibility Wind Dir Wind Speed Gust Speed Precip Events Conditions
12:53 AM 51.1 °F - 46.0 °F 83% 29.83 in 10.0 mi South 4.6 mph - N/A   Mostly Cloudy
1:53 AM 46.9 °F - 44.1 °F 90% 29.85 in 10.0 mi NE 3.5 mph - N/A   Clear
2:53 AM 45.0 °F - 43.0 °F 93% 29.84 in 10.0 mi Calm Calm - N/A   Partly Cloudy
3:53 AM 44.1 °F 40.8 °F 42.1 °F 93% 29.83 in 10.0 mi NE 5.8 mph - N/A   Clear
4:53 AM 45.0 °F 43.5 °F 43.0 °F 93% 29.84 in 10.0 mi NNE 3.5 mph - N/A   Overcast
5:53 AM 46.9 °F - 45.0 °F 93% 29.84 in 10.0 mi Calm Calm - 0.00 in Rain Light Rain
6:53 AM 48.9 °F - 46.9 °F 93% 29.84 in 10.0 mi NNE 3.5 mph - 0.02 in   Overcast
7:53 AM 53.1 °F - 48.9 °F 86% 29.83 in 10.0 mi NE 6.9 mph - 0.00 in Rain Light Rain
8:53 AM 55.9 °F - 50.0 °F 80% 29.85 in 10.0 mi Calm Calm - 0.00 in   Overcast
9:53 AM 55.9 °F - 51.1 °F 84% 29.86 in 8.0 mi SE 6.9 mph - 0.01 in Rain Light Rain
10:53 AM 55.9 °F - 51.1 °F 84% 29.89 in 10.0 mi SSW 5.8 mph - 0.05 in Rain Light Rain
11:53 AM 55.0 °F - 50.0 °F 83% 29.90 in 8.0 mi South 5.8 mph - 0.03 in Rain Light Rain
12:53 PM 55.0 °F - 50.0 °F 83% 29.91 in 10.0 mi Calm Calm - 0.03 in Rain Light Rain
1:53 PM 54.0 °F - 51.1 °F 90% 29.92 in 5.0 mi NE 5.8 mph - 0.07 in Rain Light Rain
2:53 PM 55.0 °F - 51.1 °F 86% 29.92 in 10.0 mi ENE 8.1 mph - 0.02 in Rain Light Rain
3:53 PM 59.0 °F - 54.0 °F 83% 29.90 in 10.0 mi ENE 9.2 mph - 0.00 in   Mostly Cloudy
4:53 PM 60.1 °F - 52.0 °F 75% 29.90 in 10.0 mi ENE 9.2 mph - N/A   Mostly Cloudy
5:53 PM 61.0 °F - 53.1 °F 75% 29.89 in 10.0 mi ENE 6.9 mph - 0.00 in   Mostly Cloudy
6:06 PM 60.8 °F - 51.8 °F 72% 29.93 in 10.0 mi East 8.1 mph - N/A   Mostly Cloudy
6:39 PM 59.0 °F - 53.6 °F 82% 29.93 in 7.0 mi ESE 3.5 mph - 0.00 in Rain Light Rain
6:53 PM 57.9 °F - 54.0 °F 87% 29.89 in 6.0 mi SSE 3.5 mph - 0.01 in Rain Rain
7:05 PM 57.2 °F - 53.6 °F 88% 29.94 in 1.8 mi Calm Calm - 0.03 in Rain Heavy Rain
7:13 PM 55.4 °F - 53.6 °F 94% 29.94 in 1.0 mi Calm Calm - 0.10 in Rain Heavy Rain
7:19 PM 57.2 °F - 53.6 °F 88% 29.95 in 2.0 mi West 5.8 mph - 0.12 in Rain Rain
7:42 PM 57.2 °F - 53.6 °F 88% 29.95 in 5.0 mi Calm Calm - 0.17 in Rain Light Rain
7:53 PM 57.0 °F - 54.0 °F 89% 29.90 in 10.0 mi Calm Calm - 0.17 in   Overcast
8:53 PM 55.0 °F - 54.0 °F 96% 29.91 in 10.0 mi NNW 3.5 mph - N/A   Scattered Clouds
9:53 PM 55.9 °F - 54.0 °F 93% 29.94 in 10.0 mi Calm Calm - 0.01 in Rain Light Rain
10:53 PM 55.0 °F - 54.0 °F 96% 29.95 in 10.0 mi East 4.6 mph - 0.00 in Rain Light Rain
11:08 PM 55.4 °F - 53.6 °F 94% 29.99 in 10.0 mi East 4.6 mph - N/A   Overcast
11:53 PM 54.0 °F - 53.1 °F 97% 29.96 in 10.0 mi SE 4.6 mph - 0.01 in Rain Light Rain